OneWeb SL0558

operational
NORAD ID: 56059 Int'l Des: 2023-043 Owner: ONEWEBN Country: UK Constellation: oneweb
LEOCIRCULARPOLARONEWEB_TYPE

About OneWeb SL0558

Description loading...

Live Position

Loading 3D Globe...

Upcoming Passes

Altitude History

Altitude vs Time

uPlot chart will show altitude changes over time

Two-Line Element Set

1 56059U 23043P 26049.67623326 .00000096 00000-0 20017-3 0 9991
2 56059 87.9173 267.6193 0001844 105.5635 254.5702 13.21824739142583
Epoch: Feb 18, 2026 • Age: 8 hours

Current Status

Altitude 1188.4 km
Velocity 7.26 km/s
Sub-Earth Point -27.58°S, 68.48°W
Launch Date Mar 26, 2023
Age 2.9 years
Type internet

Technical Details

Classification Payload
Mass 148.00 kg
Dry Mass 140.00 kg
Total Mass 148.00 kg
Length 1.30 m
Diameter 1.00 m
Span 5.00 m
Shape Trapezoid+2 pan
Manufacturer ONEWUS
Bus Type ARROW
Phase Status In Orbit
Owner/State ONEWEBN/UK

Large Constellations

Loading constellations...